User: anonymous   Login
Location: Unspecified
(0.0000°N, 0.0000°E)
Time: 20:13:47
(UTC+00:00)
Language:

AEHF 2 (USA 235) - Orbit

View from above orbital plane
View from above orbital plane
View from above satellite
View from above satellite

Ground track
Ground track

The orbit data is extracted from the following two-line orbital elements,

1 38254U 12019A   21136.89195782 -.00000266  00000-0  00000-0 0  9992
2 38254   2.5690  55.8472 0007740  26.5262  45.9864  1.00269038 32233
Epoch (UTC): 16 May 2021 21:24:25
Eccentricity: 0.0007740
inclination: 2.5690°
perigee height: 35754 km
apogee height: 35819 km
right ascension of ascending node: 55.8472°
argument of perigee: 26.5262°
revolutions per day: 1.00269038
mean anomaly at epoch: 45.9864°
orbit number at epoch: 3223

The dashed part of the orbit path shows where the satellite is in the earth's shadow,  

DLR